| time (UTC) | temp F | wind direction | speed knots | gust knots | rain 1hr in | rain 24hr in | rain mn in | humidity % | barometer mb |
| 20260502221552 | 64 | 10 | 1.7 | 6.1 | 0.00 | 0.00 | 0.00 | 68 | 1013.3 |
| 20260502220048 | 64 | 352 | 0.9 | 4.3 | 0.00 | 0.00 | 0.00 | 68 | 1013.5 |
| 20260502214544 | 63 | 346 | 1.7 | 7.0 | 0.00 | 0.00 | 0.00 | 70 | 1013.7 |
| 20260502213048 | 62 | 253 | 0.9 | 4.3 | 0.00 | 0.00 | 0.00 | 71 | 1014.1 |
| 20260502211553 | 62 | 38 | 1.7 | 5.2 | 0.00 | 0.00 | 0.00 | 71 | 1014.3 |
| 20260502210046 | 61 | 0 | 0.9 | 5.2 | 0.00 | 0.00 | 0.00 | 72 | 1014.4 |
| 20260502204547 | 62 | 360 | 1.7 | 6.1 | 0.00 | 0.00 | 0.00 | 71 | 1014.5 |
| 20260502203053 | 60 | 31 | 0.9 | 3.5 | 0.00 | 0.00 | 0.00 | 72 | 1014.6 |
| 20260502201543 | 59 | 27 | 1.7 | 6.1 | 0.00 | 0.00 | 0.00 | 74 | 1014.8 |
| 20260502200045 | 59 | 355 | 0.9 | 4.3 | 0.00 | 0.00 | 0.00 | 75 | 1015.0 |
| 20260502194629 | 58 | 80 | 1.7 | 3.5 | 0.00 | 0.00 | 0.00 | 76 | 1015.1 |
| 20260502193043 | 57 | 34 | 0.9 | 3.5 | 0.00 | 0.00 | 0.00 | 78 | 1015.4 |
| 20260502191547 | 56 | 0 | 0.9 | 6.1 | 0.00 | 0.00 | 0.00 | 79 | 1015.5 |
| 20260502190046 | 56 | 41 | 1.7 | 3.5 | 0.00 | 0.00 | 0.00 | 79 | 1015.6 |
| 20260502184552 | 55 | 0 | 0.9 | 2.6 | 0.00 | 0.00 | 0.00 | 80 | 1015.6 |
| 20260502183056 | 55 | 0 | 0.9 | 3.5 | 0.00 | 0.00 | 0.00 | 79 | 1015.8 |
| 20260502181544 | 55 | 67 | 0.0 | 2.6 | 0.00 | 0.00 | 0.00 | 80 | 1015.8 |
| 20260502163050 | 55 | 360 | 0.9 | 2.6 | 0.00 | 0.00 | 0.00 | 77 | 1016.0 |
| 20260502161550 | 54 | 40 | 0.9 | 4.3 | 0.00 | 0.00 | 0.00 | 78 | 1015.9 |
| 20260502151600 | 52 | 19 | 0.9 | 3.5 | 0.00 | 0.00 | 0.00 | 82 | 1016.2 |
| 20260502123047 | 51 | 0 | 0.0 | 0.0 | 0.00 | 0.00 | 0.00 | 81 | 1016.0 |
| 20260502121542 | 51 | 0 | 0.0 | 0.9 | 0.00 | 0.00 | 0.00 | 81 | 1016.1 |
| 20260502114556 | 51 | 0 | 0.0 | 0.9 | 0.00 | 0.00 | 0.00 | 82 | 1016.3 |
| 20260502113054 | 51 | 0 | 0.0 | 0.9 | 0.00 | 0.00 | 0.00 | 82 | 1016.3 |
| 20260502111551 | 50 | 0 | 0.0 | 0.0 | 0.00 | 0.00 | 0.00 | 83 | 1016.3 |
| 20260502110044 | 50 | 0 | 0.0 | 0.0 | 0.00 | 0.00 | 0.00 | 84 | 1016.4 |
| 20260502104549 | 50 | 0 | 0.0 | 0.0 | 0.00 | 0.00 | 0.00 | 84 | 1016.4 |
| 20260502103048 | 50 | 0 | 0.0 | 0.0 | 0.00 | 0.00 | 0.00 | 85 | 1016.4 |
| 20260502101616 | 50 | 0 | 0.0 | 0.0 | 0.00 | 0.00 | 0.00 | 84 | 1016.5 |
| 20260502090104 | 52 | 0 | 0.0 | 0.0 | 0.00 | 0.00 | 0.00 | 79 | 1016.7 |
| 20260502070058 | 55 | 5 | 0.0 | 2.6 | 0.00 | 0.00 | 0.00 | 72 | 1017.3 |
| 20260502064548 | 55 | 9 | 0.9 | 2.6 | 0.00 | 0.00 | 0.00 | 72 | 1017.4 |
| 20260502063050 | 55 | 31 | 0.0 | 1.7 | 0.00 | 0.00 | 0.00 | 72 | 1017.5 |
| 20260502061543 | 56 | 0 | 0.0 | 1.7 | 0.00 | 0.00 | 0.00 | 70 | 1017.6 |
| 20260502060044 | 56 | 0 | 0.0 | 1.7 | 0.00 | 0.00 | 0.00 | 69 | 1017.6 |
| 20260502054544 | 56 | 0 | 0.0 | 4.3 | 0.00 | 0.00 | 0.00 | 69 | 1017.3 |
| 20260502053044 | 57 | 0 | 0.9 | 2.6 | 0.00 | 0.00 | 0.00 | 68 | 1017.1 |
| 20260502051603 | 58 | 10 | 0.0 | 3.5 | 0.00 | 0.00 | 0.00 | 66 | 1017.0 |
| 20260502050042 | 58 | 23 | 0.0 | 1.7 | 0.00 | 0.00 | 0.00 | 66 | 1017.1 |
| 20260502044545 | 59 | 22 | 0.0 | 1.7 | 0.00 | 0.00 | 0.00 | 65 | 1016.9 |
| 20260502043039 | 59 | 9 | 0.0 | 2.6 | 0.00 | 0.00 | 0.00 | 63 | 1016.6 |
| 20260502041544 | 60 | 5 | 0.0 | 1.7 | 0.00 | 0.00 | 0.00 | 62 | 1016.5 |
| 20260502040053 | 61 | 22 | 0.0 | 1.7 | 0.00 | 0.00 | 0.00 | 62 | 1016.4 |
| 20260502034544 | 62 | 58 | 0.0 | 2.6 | 0.00 | 0.00 | 0.00 | 62 | 1016.1 |
| 20260502033044 | 63 | 13 | 0.9 | 3.5 | 0.00 | 0.00 | 0.00 | 60 | 1015.8 |
| 20260502031543 | 64 | 16 | 0.9 | 4.3 | 0.00 | 0.00 | 0.00 | 59 | 1015.7 |
| 20260502030042 | 65 | 78 | 0.0 | 3.5 | 0.00 | 0.00 | 0.00 | 60 | 1015.6 |
| 20260502024545 | 66 | 0 | 0.0 | 4.3 | 0.00 | 0.00 | 0.00 | 60 | 1015.4 |
| 20260502023104 | 67 | 0 | 0.0 | 2.6 | 0.00 | 0.00 | 0.00 | 62 | 1015.3 |
| 20260502021549 | 67 | 29 | 0.9 | 4.3 | 0.00 | 0.00 | 0.00 | 60 | 1015.1 |
| 20260502014550 | 69 | 5 | 0.0 | 4.3 | 0.00 | 0.00 | 0.00 | 63 | 1014.9 |
| 20260502013059 | 70 | 28 | 1.7 | 4.3 | 0.00 | 0.00 | 0.00 | 61 | 1014.8 |
| 20260502011549 | 70 | 273 | 0.9 | 4.3 | 0.00 | 0.00 | 0.00 | 60 | 1014.7 |
| 20260502010048 | 70 | 5 | 1.7 | 5.2 | 0.00 | 0.00 | 0.00 | 58 | 1014.7 |
| 20260502004604 | 71 | 36 | 0.9 | 3.5 | 0.00 | 0.00 | 0.00 | 53 | 1014.7 |
| 20260502003050 | 72 | 37 | 0.9 | 6.1 | 0.00 | 0.00 | 0.00 | 54 | 1014.7 |
| 20260502001602 | 71 | 37 | 0.9 | 3.5 | 0.00 | 0.00 | 0.00 | 52 | 1014.7 |
| 20260502000042 | 70 | 0 | 0.9 | 2.6 | 0.00 | 0.00 | 0.00 | 52 | 1014.9 |
| 20260501234547 | 70 | 0 | 0.9 | 3.5 | 0.00 | 0.00 | 0.00 | 52 | 1014.9 |
| 20260501233054 | 71 | 255 | 1.7 | 5.2 | 0.00 | 0.00 | 0.00 | 52 | 1015.1 |
| 20260501231545 | 70 | 32 | 0.9 | 3.5 | 0.00 | 0.00 | 0.00 | 54 | 1015.3 |
| 20260501230042 | 70 | 32 | 0.9 | 7.0 | 0.00 | 0.00 | 0.00 | 56 | 1015.6 |
| 20260501224542 | 70 | 36 | 0.0 | 5.2 | 0.00 | 0.00 | 0.00 | 55 | 1015.7 |
| 20260501223043 | 69 | 76 | 0.9 | 2.6 | 0.00 | 0.00 | 0.00 | 62 | 1015.9 |